Satellite: ASTRA 1B
Catalog number: 21139
Epoch time:      103037.00000000
Element set:     159 
Inclination:        0.0122 deg
RA of node:       319.8851 deg
Eccentricity:    0.0002995
Arg of perigee:    65.1991 deg
Mean anomaly:     129.8295 deg
Mean motion:    1.00273184 rev/day
Decay rate:    1.2100E-006 rev/day^2
Epoch rev:            3206
Checksum:              233

Satellite: METEOSAT 5 (MO
Catalog number: 21140
Epoch time:      103035.84898120
Element set:     705 
Inclination:        5.5994 deg
RA of node:        70.0433 deg
Eccentricity:    0.0002339
Arg of perigee:   148.9378 deg
Mean anomaly:     284.0180 deg
Mean motion:    1.00270728 rev/day
Decay rate:    1.7000E-007 rev/day^2
Epoch rev:            4591
Checksum:              277

Satellite: NOAA 12
Catalog number: 21263
Epoch time:      103037.12645712
Element set:     959 
Inclination:       98.6242 deg
RA of node:        26.9650 deg
Eccentricity:    0.0013737
Arg of perigee:    59.0618 deg
Mean anomaly:     301.1910 deg
Mean motion:   14.25071335 rev/day
Decay rate:    3.0199E-006 rev/day^2
Epoch rev:           60944
Checksum:              295

Satellite: OSCAR 22 (UoSA
Catalog number: 21575
Epoch time:      103036.57596801
Element set:     718 
Inclination:       98.1394 deg
RA of node:        29.3533 deg
Eccentricity:    0.0007373
Arg of perigee:   164.9534 deg
Mean anomaly:     195.1873 deg
Mean motion:   14.39144207 rev/day
Decay rate:    3.0300E-006 rev/day^2
Epoch rev:           60641
Checksum:              316

Satellite: METEOR 3-5
Catalog number: 21655
Epoch time:      103037.21487557
Element set:     497 
Inclination:       82.5534 deg
RA of node:        47.5907 deg
Eccentricity:    0.0012429
Arg of perigee:   227.7415 deg
Mean anomaly:     132.2655 deg
Mean motion:   13.16979587 rev/day
Decay rate:    5.1000E-007 rev/day^2
Epoch rev:           55185
Checksum:              330

Satellite: UARS
Catalog number: 21701
Epoch time:      103036.39215953
Element set:     817 
Inclination:       56.9814 deg
RA of node:        85.3845 deg
Eccentricity:    0.0005071
Arg of perigee:   114.4543 deg
Mean anomaly:     245.6972 deg
Mean motion:   15.02829394 rev/day
Decay rate:    8.1899E-006 rev/day^2
Epoch rev:           62373
Checksum:              326

Satellite: EUTELSAT 2-F3
Catalog number: 21803
Epoch time:      103037.00996529
Element set:     518 
Inclination:        2.5676 deg
RA of node:        89.2698 deg
Eccentricity:    0.0002559
Arg of perigee:   256.1039 deg
Mean anomaly:     175.3534 deg
Mean motion:    1.00273912 rev/day
Decay rate:    1.2799E-006 rev/day^2
Epoch rev:            3687
Checksum:              322

Satellite: INMARSAT 2-F3
Catalog number: 21814
Epoch time:      103036.48229002
Element set:     611 
Inclination:        1.7190 deg
RA of node:        57.8212 deg
Eccentricity:    0.0002666
Arg of perigee:   273.2879 deg
Mean anomaly:     195.6565 deg
Mean motion:    1.00272529 rev/day
Decay rate:    1.1099E-006 rev/day^2
Epoch rev:            4076
Checksum:              288

Satellite: INMARSAT 2-F4
Catalog number: 21940
Epoch time:      103033.80414906
Element set:     568 
Inclination:        2.3665 deg
RA of node:        19.1794 deg
Eccentricity:    0.0001463
Arg of perigee:   307.8659 deg
Mean anomaly:     203.9708 deg
Mean motion:    1.00267475 rev/day
Decay rate:   -3.6100E-006 rev/day^2
Epoch rev:            3952
Checksum:              294

Satellite: EUTELSAT 2-F4
Catalog number: 22028
Epoch time:      103036.14067131
Element set:     326 
Inclination:        1.6832 deg
RA of node:        92.7461 deg
Eccentricity:    0.0005706
Arg of perigee:   210.0247 deg
Mean anomaly:     230.4304 deg
Mean motion:    1.00271599 rev/day
Decay rate:   -1.0200E-006 rev/day^2
Epoch rev:            3164
Checksum:              233

Satellite: OSCAR 23 (KITS
Catalog number: 22077
Epoch time:      103036.19572964
Element set:     152 
Inclination:       66.0797 deg
RA of node:       153.7301 deg
Eccentricity:    0.0015405
Arg of perigee:   277.6018 deg
Mean anomaly:      82.3251 deg
Mean motion:   12.86407954 rev/day
Decay rate:   -3.7000E-007 rev/day^2
Epoch rev:           49258
Checksum:              309

Satellite: ASTRA 1C
Catalog number: 22653
Epoch time:      103037.00000000
Element set:     785 
Inclination:        0.0122 deg
RA of node:       319.8851 deg
Eccentricity:    0.0002995
Arg of perigee:    65.1991 deg
Mean anomaly:     116.0233 deg
Mean motion:    1.00273184 rev/day
Decay rate:    3.7000E-007 rev/day^2
Epoch rev:            3076
Checksum:              232

Satellite: METEOR 2-21
Catalog number: 22782
Epoch time:      103036.80638563
Element set:     510 
Inclination:       82.5450 deg
RA of node:       225.0168 deg
Eccentricity:    0.0022836
Arg of perigee:    25.2925 deg
Mean anomaly:     334.9328 deg
Mean motion:   13.83531396 rev/day
Decay rate:    1.0100E-006 rev/day^2
Epoch rev:           47632
Checksum:              290

Satellite: KITSAT B
Catalog number: 22825
Epoch time:      103036.86846092
Element set:     479 
Inclination:       98.2755 deg
RA of node:        67.2112 deg
Eccentricity:    0.0007757
Arg of perigee:   301.9633 deg
Mean anomaly:      58.0797 deg
Mean motion:   14.28938145 rev/day
Decay rate:    1.3799E-006 rev/day^2
Epoch rev:           48806
Checksum:              351

Satellite: POSAT 1
Catalog number: 22826
Epoch time:      103036.55065904
Element set:     301 
Inclination:       98.2760 deg
RA of node:        68.0189 deg
Eccentricity:    0.0008400
Arg of perigee:   302.7179 deg
Mean anomaly:      57.3207 deg
Mean motion:   14.29160596 rev/day
Decay rate:    1.5499E-006 rev/day^2
Epoch rev:           48806
Checksum:              313

Satellite: ITAMSAT
Catalog number: 22828
Epoch time:      103036.11412341
Element set:     418 
Inclination:       98.2734 deg
RA of node:        67.8691 deg
Eccentricity:    0.0009312
Arg of perigee:   281.4588 deg
Mean anomaly:      78.5545 deg
Mean motion:   14.29503189 rev/day
Decay rate:    1.2100E-006 rev/day^2
Epoch rev:           45620
Checksum:              298

Satellite: EYESAT A
Catalog number: 22829
Epoch time:      103037.10549975
Element set:     443 
Inclination:       98.2754 deg
RA of node:        69.4105 deg
Eccentricity:    0.0009007
Arg of perigee:   278.2292 deg
Mean anomaly:      81.7867 deg
Mean motion:   14.29761396 rev/day
Decay rate:    2.3099E-006 rev/day^2
Epoch rev:           48827
Checksum:              349

Satellite: METEOSAT 6
Catalog number: 22912
Epoch time:      103037.00837385
Element set:     667 
Inclination:        2.6474 deg
RA of node:        82.4740 deg
Eccentricity:    0.0001317
Arg of perigee:   213.4207 deg
Mean anomaly:     212.4037 deg
Mean motion:    1.00278697 rev/day
Decay rate:    6.3999E-007 rev/day^2
Epoch rev:            3217
Checksum:              291

Satellite: GOES 8
Catalog number: 23051
Epoch time:      103037.24178046
Element set:     593 
Inclination:        0.2677 deg
RA of node:       103.4782 deg
Eccentricity:    0.0001555
Arg of perigee:   301.6139 deg
Mean anomaly:     102.7833 deg
Mean motion:    1.00281068 rev/day
Decay rate:   -2.4799E-006 rev/day^2
Epoch rev:            3968
Checksum:              290

Satellite: ASTRA 1D
Catalog number: 23331
Epoch time:      103037.01194446
Element set:     813 
Inclination:        0.0520 deg
RA of node:       224.9646 deg
Eccentricity:    0.0003223
Arg of perigee:    53.2445 deg
Mean anomaly:     245.9967 deg
Mean motion:    1.00274944 rev/day
Decay rate:    1.4099E-006 rev/day^2
Epoch rev:            3074
Checksum:              265

Satellite: RADIO ROSTO
Catalog number: 23439
Epoch time:      103035.98978404
Element set:     687 
Inclination:       64.8155 deg
RA of node:        63.4409 deg
Eccentricity:    0.0147099
Arg of perigee:   117.8231 deg
Mean anomaly:     243.7689 deg
Mean motion:   11.27547572 rev/day
Decay rate:   -4.1000E-007 rev/day^2
Epoch rev:           33406
Checksum:              326

Satellite: NOAA 14
Catalog number: 23455
Epoch time:      103037.08490388
Element set:     513 
Inclination:       99.1872 deg
RA of node:        55.3231 deg
Eccentricity:    0.0008611
Arg of perigee:   265.0920 deg
Mean anomaly:      94.9268 deg
Mean motion:   14.13292476 rev/day
Decay rate:    1.7500E-006 rev/day^2
Epoch rev:           41771
Checksum:              307

Satellite: HIMAWARI 5 (GM
Catalog number: 23522
Epoch time:      103036.73716220
Element set:     85 
Inclination:        1.7472 deg
RA of node:        83.8609 deg
Eccentricity:    0.0000401
Arg of perigee:    18.4376 deg
Mean anomaly:      78.2905 deg
Mean motion:    1.00261538 rev/day
Decay rate:   -2.8500E-006 rev/day^2
Epoch rev:            2876
Checksum:              278

Satellite: HOT BIRD 1
Catalog number: 23537
Epoch time:      103013.80550721
Element set:     533 
Inclination:        0.0070 deg
RA of node:       236.2796 deg
Eccentricity:    0.0008090
Arg of perigee:    86.9786 deg
Mean anomaly:      92.5958 deg
Mean motion:    1.00275871 rev/day
Decay rate:    1.0700E-006 rev/day^2
Epoch rev:            2861
Checksum:              279

Satellite: GOES 9
Catalog number: 23581
Epoch time:      103036.45570317
Element set:     503 
Inclination:        0.3040 deg
RA of node:       277.7033 deg
Eccentricity:    0.0012523
Arg of perigee:   253.6594 deg
Mean anomaly:     341.4744 deg
Mean motion:    1.00051941 rev/day
Decay rate:    1.2900E-006 rev/day^2
Epoch rev:            2823
Checksum:              252

